1498100400.44,49839,19.81,74078.3,5.03,-26.77,-27.35,0,*73
1498100401.7,49840,19.88,74076.3,5.03,-26.77,-27.35,0,*7D
1498100402.9,49841,19.88,74076.3,5.03,-27.07,-27.51,0,*78
1498100404.13,49842,19.81,74068.5,5.03,-27.23,-27.71,0,*7F
1498100405.33,49843,19.88,74074.3,5.07,-27.29,-27.77,0,*76
1498100406.55,49844,19.88,74074.5,5.07,-27.35,-27.77,0,*7C
1498100407.76,49845,19.81,74078.3,5.07,-27.29,-27.67,0,*71
1498100408.99,49846,19.88,74072.5,5.07,-26.81,-27.29,0,*7B
1498100410.24,49847,19.81,74070.8,5.07,-26.29,-26.71,0,*74
1498100411.44,49848,19.81,74074.8,5.07,-26.61,-27.13,0,*72
1498100412.64,49849,19.88,74078.5,5.07,-26.65,-27.13,0,*77
1498100413.88,49850,19.88,74082.3,5.07,-26.81,-27.29,0,*7C
1498100415.13,49851,19.81,74082.8,5.09,-26.81,-27.13,0,*7A
1498100416.37,49852,19.88,74078.0,5.09,-26.65,-27.29,0,*7A
1498100417.61,49853,19.88,74062.3,5.09,-27.03,-27.45,0,*70
1498100418.83,49854,19.81,74058.3,5.07,-27.19,-27.67,0,*72
1498100420.11,49855,19.88,74078.5,5.09,-26.97,-27.35,0,*7D
1498100421.36,49856,19.88,74068.3,5.09,-26.45,-26.97,0,*78
1498100422.6,49857,19.81,74064.8,5.09,-26.65,-27.29,0,*7F
1498100423.82,49858,19.88,74062.3,5.09,-27.03,-27.51,0,*7E
1498100425.05,49859,19.88,74064.3,5.09,-27.29,-27.77,0,*73
1498100426.32,49860,19.88,74064.5,5.09,-27.35,-27.83,0,*7F
1498100427.57,49861,19.81,74060.5,5.09,-27.51,-28.05,0,*7D
1498100428.85,49862,19.81,74062.3,5.09,-27.61,-28.21,0,*7B
1498100430.11,49863,19.88,74060.5,5.09,-27.67,-28.21,0,*7C
1498100431.37,49864,19.88,74062.8,5.09,-27.67,-28.21,0,*7B
1498100432.59,49865,19.88,74064.5,5.07,-27.77,-28.21,0,*75
1498100433.84,49866,19.88,74066.0,5.03,-27.83,-28.21,0,*79
1498100435.11,49867,19.88,74062.5,5.07,-27.61,-28.21,0,*70
1498100436.34,49868,19.88,74066.5,5.03,-27.71,-28.25,0,*7E
1498100437.57,49869,19.88,74076.3,5.03,-27.71,-28.21,0,*7B
1498100438.82,49870,19.88,74094.0,5.01,-27.71,-28.25,0,*75
1498100440.04,49871,19.88,74090.0,5.01,-27.51,-27.89,0,*7F
1498100441.26,49872,19.88,74086.0,5.03,-27.19,-27.67,0,*72
1498100442.51,49873,19.81,74088.0,5.03,-27.23,-27.83,0,*70
1498100443.74,49874,19.88,74092.0,5.03,-27.39,-27.89,0,*76
1498100444.94,49875,19.88,74092.3,5.03,-27.07,-27.55,0,*7B
1498100446.17,49876,19.88,74086.5,5.03,-26.93,-27.51,0,*70
1498100447.39,49877,19.81,74078.3,5.03,-26.71,-27.07,0,*7E
1498100448.64,49878,19.81,74074.8,5.03,-26.71,-27.23,0,*77
1498100449.85,49879,19.88,74070.0,5.03,-27.03,-27.67,0,*72
1498100451.05,49880,19.88,74064.5,5.07,-27.29,-27.77,0,*79
1498100452.28,49881,19.88,74056.8,5.07,-27.51,-27.99,0,*77
1498100453.51,49882,19.81,74048.3,5.03,-27.71,-28.25,0,*7A
1498100454.73,49883,19.81,74054.3,5.01,-27.93,-28.37,0,*76
1498100455.93,49884,19.81,74062.0,5.07,-27.89,-28.31,0,*7A
1498100457.16,49885,19.88,74062.8,5.01,-27.89,-28.37,0,*7B
1498100458.38,49886,19.88,74076.3,5.01,-27.93,-28.37,0,*73
1498100459.65,49887,19.88,74086.3,5.01,-27.83,-28.25,0,*70
1498100460.91,49888,19.88,74078.0,5.01,-27.67,-28.09,0,*7B
1498100462.16,49889,19.81,74074.8,5.01,-27.67,-28.09,0,*7A
1498100463.39,49890,19.88,74082.3,4.99,-27.55,-28.09,0,*73
1498100464.61,49891,19.88,74076.3,4.99,-27.39,-27.77,0,*7E
1498100465.84,49892,19.81,74078.5,4.99,-27.45,-27.93,0,*7C
1498100467.09,49893,19.88,74080.5,4.99,-26.97,-27.45,0,*78
1498100468.35,49894,19.88,74080.8,4.99,-26.97,-27.45,0,*7F
1498100469.58,49895,19.81,74082.0,4.99,-26.97,-27.55,0,*7F
1498100470.83,49896,19.81,74080.0,4.99,-26.93,-27.45,0,*79
1498100472.08,49897,19.81,74078.5,4.99,-26.93,-27.45,0,*78
1498100473.33,49898,19.88,74078.0,5.01,-26.87,-27.39,0,*79
1498100474.58,49899,19.88,74074.5,5.01,-26.87,-27.39,0,*78
1498100475.84,49900,19.88,74070.3,5.01,-27.19,-27.83,0,*7E
1498100477.09,49901,19.88,74068.0,5.01,-27.35,-27.89,0,*7B
1498100478.31,49902,19.88,74062.8,5.01,-27.51,-27.93,0,*71
1498100479.57,49903,19.81,74070.8,4.99,-27.61,-28.09,0,*7F
1498100480.82,49904,19.88,74072.3,5.01,-27.67,-28.09,0,*7E
1498100482.08,49905,19.81,74070.8,5.01,-27.67,-28.21,0,*75
1498100483.33,49906,19.81,74066.5,5.01,-27.71,-28.25,0,*75
1498100484.54,49907,19.81,74062.0,4.99,-27.77,-28.31,0,*77
1498100485.75,49908,19.88,74062.8,4.99,-27.77,-28.31,0,*78
1498100486.98,49909,19.81,74072.0,4.99,-27.89,-28.43,0,*7D
1498100488.22,49910,19.88,74074.5,4.97,-27.93,-28.47,0,*74
1498100489.49,49911,19.88,74068.3,4.97,-27.83,-28.47,0,*74
1498100490.76,49912,19.88,74068.8,4.97,-27.83,-28.47,0,*77
1498100492.03,49913,19.81,74068.8,4.97,-27.83,-28.47,0,*76
1498100493.27,49914,19.81,74066.8,4.97,-27.83,-28.37,0,*76
1498100494.5,49915,19.88,74064.0,4.93,-27.93,-28.53,0,*70
1498100495.76,49916,19.81,74058.8,4.93,-27.99,-28.53,0,*79
1498100496.96,49917,19.81,74060.8,4.95,-27.93,-28.53,0,*74
1498100498.22,49918,19.88,74064.0,4.93,-27.99,-28.53,0,*77
1498100499.44,49919,19.88,74066.8,4.95,-27.83,-28.37,0,*79
1498100500.69,49920,19.88,74072.0,4.93,-27.83,-28.37,0,*75
1498100501.97,49921,19.88,74068.5,4.93,-27.83,-28.25,0,*77
1498100503.23,49922,19.81,74066.8,4.93,-27.67,-28.25,0,*7E
1498100504.48,49923,19.81,74070.3,4.91,-27.71,-28.09,0,*74
1498100505.73,49924,19.88,74072.0,4.91,-27.67,-28.05,0,*78
1498100506.97,49925,19.81,74074.8,4.93,-27.51,-27.89,0,*75
1498100508.21,49926,19.81,74070.0,4.91,-26.93,-27.51,0,*7E
1498100509.49,49927,19.88,74070.8,4.91,-26.81,-27.23,0,*79
1498100510.72,49928,19.88,74072.5,4.91,-27.07,-27.67,0,*79
1498100511.95,49929,19.88,74070.8,4.93,-26.87,-27.55,0,*72
1498100513.15,49930,19.88,74068.8,4.95,-26.61,-27.03,0,*77
1498100514.43,49931,19.88,74074.5,4.93,-26.55,-26.93,0,*7F
1498100515.66,49932,19.88,74070.8,4.95,-26.45,-26.77,0,*71
1498100516.86,49933,19.88,74074.5,4.95,-26.45,-26.87,0,*7F
1498100518.07,49934,19.81,74068.0,4.95,-26.49,-26.87,0,*74
1498100519.3,49935,19.81,74070.0,4.95,-26.33,-26.65,0,*74
1498100520.54,49936,19.81,74068.3,4.99,-26.17,-26.61,0,*79
1498100521.76,49937,19.81,74062.0,4.97,-26.61,-27.13,0,*73
1498100522.98,49938,19.88,74058.0,4.99,-26.55,-27.07,0,*70
1498100524.22,49939,19.81,74056.0,4.99,-26.71,-27.29,0,*7B
1498100525.44,49940,19.88,74066.5,4.99,-27.23,-27.71,0,*7E
1498100526.7,49941,19.81,74064.8,4.99,-27.39,-27.99,0,*72
1498100527.93,49942,19.81,74054.5,4.99,-27.55,-28.09,0,*7D
1498100529.16,49943,19.81,74052.5,4.97,-27.67,-28.31,0,*78
1498100530.37,49944,19.88,74064.0,4.99,-27.67,-28.37,0,*77
1498100531.59,49945,19.88,74068.0,4.97,-27.77,-28.31,0,*7F
1498100532.82,49946,19.88,74066.5,4.99,-27.23,-27.71,0,*78
1498100534.06,49947,19.81,74064.0,4.97,-27.19,-27.77,0,*78
1498100535.3,49948,19.81,74062.8,4.95,-27.51,-28.05,0,*73
1498100536.54,49949,19.88,74062.8,4.95,-27.61,-28.31,0,*76
1498100537.77,49950,19.81,74058.5,4.95,-27.67,-28.21,0,*79
1498100539.05,49951,19.81,74070.3,4.93,-27.83,-28.43,0,*70
1498100540.28,49952,19.81,74080.8,4.93,-27.89,-28.37,0,*7A
1498100541.49,49953,19.88,74086.5,4.95,-27.67,-28.31,0,*7B
1498100542.7,49954,19.81,74078.8,4.95,-27.51,-28.15,0,*7F
1498100543.9,49955,19.88,74084.8,4.95,-27.13,-27.77,0,*73
1498100545.1,49956,19.81,74076.3,4.95,-27.13,-27.67,0,*71
1498100546.3,49957,19.81,74066.5,4.95,-26.87,-27.51,0,*79
1498100547.53,49958,19.81,74064.3,4.95,-26.93,-27.55,0,*77
1498100548.81,49959,19.88,74064.8,4.93,-27.19,-27.83,0,*78
1498100550.08,49960,19.81,74068.3,4.93,-27.23,-27.83,0,*7B
1498100551.32,49961,19.81,74068.8,4.95,-27.51,-27.99,0,*72
1498100552.57,49962,19.88,74072.0,4.93,-27.23,-27.89,0,*73
1498100553.85,49963,19.81,74070.0,4.93,-27.23,-27.83,0,*78
1498100555.1,49964,19.81,74058.3,4.93,-27.39,-27.89,0,*7E
1498100556.36,49965,19.81,74062.5,4.93,-27.51,-28.05,0,*7A
1498100557.62,49966,19.88,74058.3,4.93,-27.55,-28.05,0,*7D
1498100558.85,49967,19.88,74054.3,4.95,-27.67,-28.09,0,*77
1498100560.11,49968,19.88,74082.8,4.93,-27.67,-28.21,0,*74
1498100561.37,49969,19.88,74072.0,4.93,-26.93,-27.51,0,*77
1498100562.63,49970,19.81,74066.0,4.95,-26.29,-26.77,0,*7D
1498100563.84,49971,19.88,74070.0,4.95,-26.03,-26.49,0,*79
1498100565.06,49972,19.88,74054.3,4.93,-26.87,-27.51,0,*78
1498100566.27,49973,19.81,74058.5,4.95,-27.03,-27.67,0,*77
1498100567.5,49974,19.81,74052.8,4.95,-27.29,-27.83,0,*72
1498100568.76,49975,19.88,74054.3,4.95,-27.45,-28.05,0,*78
1498100570.0,49976,19.81,74058.5,4.95,-27.67,-28.21,0,*7D
1498100571.26,49977,19.88,74050.0,4.93,-27.71,-28.25,0,*79
1498100572.51,49978,19.81,74056.3,4.93,-27.71,-28.25,0,*76
1498100573.79,49979,19.81,74066.0,4.93,-27.83,-28.43,0,*7A
1498100575.04,49980,19.88,74064.5,4.93,-27.83,-28.37,0,*7F
1498100576.3,49981,19.81,74056.0,4.93,-27.71,-28.25,0,*70
1498100577.53,49982,19.88,74074.5,4.93,-27.67,-28.37,0,*77
1498100578.8,49983,19.81,74080.0,4.95,-27.61,-28.21,0,*71
1498100580.06,49984,19.88,74088.0,4.93,-27.67,-28.25,0,*72
1498100581.28,49985,19.81,74082.3,4.91,-27.51,-28.15,0,*77
1498100582.56,49986,19.81,74068.8,4.91,-27.39,-28.09,0,*77
1498100583.81,49987,19.81,74066.8,4.91,-27.55,-28.21,0,*76
1498100585.06,49988,19.81,74068.8,4.89,-27.61,-28.25,0,*73
1498100586.31,49989,19.88,74066.0,4.91,-27.67,-28.09,0,*73
1498100587.57,49990,19.88,74072.3,4.89,-27.61,-28.09,0,*74
1498100588.81,49991,19.81,74074.0,4.91,-27.51,-28.09,0,*7F
1498100590.05,49992,19.88,74082.8,4.89,-27.61,-28.15,0,*7B
1498100591.28,49993,19.81,74080.5,4.89,-27.61,-28.15,0,*7A
1498100592.47,49994,19.88,74078.0,4.89,-27.13,-27.71,0,*75
1498100593.67,49995,19.88,74082.0,4.89,-27.13,-27.71,0,*74
1498100594.86,49996,19.88,74080.5,4.89,-27.13,-27.77,0,*71
1498100596.06,49997,19.81,74076.8,4.89,-27.29,-27.89,0,*78
1498100597.26,49998,19.81,74080.3,4.89,-27.29,-27.77,0,*76
1498100598.48,49999,19.81,74080.0,4.89,-27.07,-27.61,0,*7C
1498100599.71,50000,19.81,74076.8,4.89,-26.77,-27.29,0,*77
1498100600.93,50001,19.81,74076.8,4.89,-26.87,-27.39,0,*78
1498100602.18,50002,19.81,74078.8,4.91,-26.93,-27.51,0,*79
1498100603.41,50003,19.81,74078.0,4.91,-27.07,-27.67,0,*71
1498100604.61,50004,19.81,74076.8,4.89,-27.29,-27.89,0,*73
1498100605.83,50005,19.81,74082.5,4.89,-27.13,-27.61,0,*7D
1498100607.05,50006,19.88,74080.8,4.91,-26.87,-27.55,0,*7C
1498100608.3,50007,19.81,74076.0,4.89,-26.93,-27.39,0,*7B
1498100609.54,50008,19.81,74078.5,4.89,-26.71,-27.23,0,*73
1498100610.78,50009,19.81,74078.8,4.89,-26.71,-27.23,0,*72
1498100612.0,50010,19.88,74080.0,4.91,-26.87,-27.51,0,*7F
1498100613.22,50011,19.81,74076.0,4.91,-26.87,-27.51,0,*7E
1498100614.44,50012,19.81,74080.8,4.89,-26.93,-27.55,0,*75
1498100615.69,50013,19.88,74086.5,4.91,-26.71,-27.51,0,*75
1498100616.9,50014,19.81,74084.0,4.91,-26.87,-27.55,0,*7F
1498100618.12,50015,19.88,74084.8,4.91,-26.87,-27.51,0,*7A
1498100619.38,50016,19.88,74088.0,4.91,-26.93,-27.67,0,*79
1498100620.63,50017,19.81,74076.5,4.91,-27.07,-27.83,0,*7E
1498100621.87,50018,19.81,74070.8,4.91,-27.03,-27.83,0,*75
1498100623.12,50019,19.88,74070.8,4.91,-27.23,-27.89,0,*7C
1498100624.39,50020,19.81,74056.0,4.91,-27.39,-28.05,0,*76
1498100625.65,50021,19.81,74066.5,4.91,-27.51,-28.21,0,*7F
1498100626.89,50022,19.81,74074.8,4.91,-27.55,-28.21,0,*78
1498100628.14,50023,19.81,74082.3,4.91,-27.51,-27.99,0,*71
1498100629.39,50024,19.88,74082.3,4.89,-27.39,-28.05,0,*7B
1498100630.64,50025,19.81,74080.8,4.91,-27.51,-28.05,0,*7D
1498100631.89,50026,19.81,74084.5,4.89,-27.39,-28.09,0,*75
1498100633.13,50027,19.81,74068.8,4.91,-27.35,-27.89,0,*76
1498100634.34,50028,19.81,74070.3,4.89,-27.29,-27.89,0,*7D
1498100635.53,50029,19.81,74066.8,4.89,-27.55,-28.15,0,*7D
1498100636.79,50030,19.88,74072.5,4.89,-27.61,-28.25,0,*71
1498100638.05,50031,19.88,74090.0,4.89,-27.61,-28.25,0,*70
1498100639.28,50032,19.81,74084.0,4.89,-27.61,-28.31,0,*76
1498100640.51,50033,19.88,74086.5,4.89,-27.07,-27.61,0,*7D
1498100641.7,50034,19.81,74080.3,4.89,-26.87,-27.55,0,*74
1498100642.89,50035,19.81,74078.8,4.89,-27.13,-27.71,0,*7F
1498100644.09,50036,19.81,74080.0,4.89,-27.13,-27.89,0,*7B
1498100645.28,50037,19.81,74082.8,4.89,-27.29,-27.93,0,*78
1498100646.51,50038,19.81,74082.0,4.87,-27.51,-28.15,0,*77
1498100647.78,50039,19.88,74086.8,4.87,-27.61,-28.15,0,*75
1498100649.05,50040,19.81,74080.3,4.87,-27.45,-28.09,0,*70
1498100650.26,50041,19.88,74090.5,4.85,-27.29,-27.93,0,*75
1498100651.48,50042,19.81,74082.8,4.85,-27.35,-27.93,0,*7B
1498100652.75,50043,19.81,74080.8,4.87,-27.45,-28.09,0,*73
1498100654.0,50044,19.88,74084.8,4.87,-27.51,-27.99,0,*77
1498100655.24,50045,19.88,74086.0,4.85,-27.61,-28.15,0,*7C
1498100656.45,50046,19.81,74080.8,4.85,-27.67,-28.31,0,*7F
1498100657.67,50047,19.81,74078.3,4.85,-27.83,-28.37,0,*72
1498100658.89,50048,19.88,74086.8,4.85,-27.83,-28.31,0,*7B
1498100660.11,50049,19.81,74086.8,4.85,-27.83,-28.37,0,*7C
1498100661.31,50050,19.88,74084.0,4.85,-27.77,-28.31,0,*79
1498100662.57,50051,19.81,74092.3,4.87,-27.83,-28.31,0,*71
1498100663.77,50052,19.88,74094.3,4.85,-27.67,-28.31,0,*7A
1498100664.98,50053,19.88,74090.8,4.85,-27.03,-27.67,0,*75
1498100666.2,50054,19.81,74090.0,4.85,-26.65,-27.19,0,*7A
1498100667.41,50055,19.81,74084.3,4.85,-26.49,-27.03,0,*7E
1498100668.61,50056,19.81,74078.0,4.85,-26.49,-27.03,0,*7D
1498100669.87,50057,19.81,74074.5,4.87,-26.81,-27.29,0,*72
1498100671.13,50058,19.81,74072.0,4.87,-26.77,-27.29,0,*74
1498100672.42,50059,19.81,74068.5,4.87,-26.77,-27.35,0,*78
1498100673.7,50060,19.81,74068.3,4.87,-26.93,-27.61,0,*79
1498100674.9,50061,19.88,74068.3,4.89,-27.29,-27.89,0,*70
1498100676.13,50062,19.81,74064.8,4.87,-27.51,-28.15,0,*78
1498100677.38,50063,19.88,74064.0,4.87,-27.67,-28.21,0,*7B
1498100678.62,50064,19.81,74070.5,4.85,-27.61,-28.31,0,*79
1498100679.83,50065,19.81,74072.5,4.85,-27.67,-28.31,0,*7E
1498100681.05,50066,19.81,74078.3,4.85,-27.51,-28.09,0,*73
1498100682.25,50067,19.81,74076.3,4.85,-27.29,-27.93,0,*71
1498100683.5,50068,19.81,74080.3,4.87,-27.19,-27.67,0,*74
1498100684.72,50069,19.81,74084.3,4.87,-27.13,-27.77,0,*7E
1498100685.94,50070,19.88,74088.0,4.85,-27.19,-27.67,0,*7F
1498100687.17,50071,19.88,74088.3,4.85,-26.97,-27.67,0,*79
1498100688.4,50072,19.81,74086.0,4.87,-27.03,-27.67,0,*74
1498100689.6,50073,19.81,74086.5,4.85,-27.03,-27.77,0,*76
1498100690.81,50074,19.88,74086.3,4.85,-27.19,-27.77,0,*7A
1498100692.09,50075,19.81,74074.8,4.87,-27.35,-27.99,0,*77
1498100693.29,50076,19.81,74062.3,4.85,-27.29,-27.93,0,*71
1498100694.52,50077,19.81,74060.0,4.85,-27.29,-27.83,0,*71
1498100695.72,50078,19.88,74066.5,4.85,-27.13,-27.67,0,*7D
1498100696.91,50079,19.81,74068.5,4.85,-27.13,-27.77,0,*7D
1498100698.13,50080,19.81,74068.5,4.85,-27.35,-27.93,0,*75
1498100699.38,50081,19.81,74076.3,4.85,-27.35,-27.99,0,*7E
1498100700.61,50082,19.88,74082.3,4.85,-27.29,-27.99,0,*70
1498100701.87,50083,19.81,74074.8,4.87,-27.29,-27.99,0,*73
1498100703.12,50084,19.81,74074.0,4.85,-27.45,-28.09,0,*7A
1498100704.35,50085,19.88,74078.5,4.81,-27.67,-28.25,0,*71
1498100705.56,50086,19.81,74080.0,4.85,-27.67,-28.15,0,*75
1498100706.79,50087,19.81,74072.5,4.85,-27.67,-28.21,0,*73
1498100708.02,50088,19.81,74084.8,4.85,-27.67,-28.21,0,*7C
1498100709.27,50089,19.81,74094.3,4.79,-27.67,-28.25,0,*7A
1498100710.48,50090,19.88,74094.8,4.81,-27.51,-28.15,0,*73
1498100711.73,50091,19.81,74090.3,4.81,-27.23,-27.83,0,*77
1498100712.97,50092,19.81,74080.3,4.79,-27.19,-27.89,0,*70
1498100714.25,50093,19.81,74078.5,4.79,-27.23,-27.99,0,*79
1498100715.5,50094,19.88,74074.0,4.81,-27.39,-28.05,0,*78
1498100716.76,50095,19.88,74068.8,4.79,-27.39,-28.15,0,*7F
1498100717.98,50096,19.81,74070.5,4.81,-27.55,-28.05,0,*70
1498100719.21,50097,19.88,74068.3,4.79,-27.55,-28.15,0,*77
1498100720.47,50098,19.81,74066.5,4.79,-27.55,-28.21,0,*7F
1498100721.72,50099,19.81,74072.5,4.79,-27.67,-28.25,0,*7B
1498100722.98,50100,19.88,74078.3,4.79,-27.71,-28.25,0,*7D
1498100724.21,50101,19.81,74076.5,4.79,-27.51,-28.15,0,*7D
1498100725.47,50102,19.81,74070.5,4.79,-27.67,-28.21,0,*7C
1498100726.73,50103,19.81,74076.5,4.77,-27.61,-28.21,0,*75
1498100727.96,50104,19.81,74080.3,4.79,-27.55,-28.15,0,*7C
1498100729.19,50105,19.81,74080.0,4.77,-27.55,-28.21,0,*74
1498100730.42,50106,19.88,74086.0,4.77,-27.55,-28.09,0,*7D
1498100731.64,50107,19.88,74098.8,4.77,-27.39,-27.93,0,*7A
1498100732.92,50108,19.81,74088.5,4.75,-27.35,-27.99,0,*71
1498100734.14,50109,19.88,74084.0,4.77,-27.23,-27.77,0,*75
1498100735.39,50110,19.81,74078.5,4.75,-27.13,-27.83,0,*77
1498100736.62,50111,19.88,74080.5,4.77,-26.93,-27.55,0,*76
1498100737.87,50112,19.81,74080.0,4.77,-26.93,-27.45,0,*74
1498100739.1,50113,19.81,74080.0,4.77,-26.93,-27.55,0,*74
1498100740.37,50114,19.88,74076.8,4.75,-26.77,-27.45,0,*7A
1498100741.6,50115,19.81,74072.8,4.77,-26.71,-27.29,0,*75
1498100742.83,50116,19.81,74074.8,4.77,-26.71,-27.29,0,*76
1498100744.09,50117,19.81,74076.5,4.79,-26.65,-27.35,0,*71
1498100745.37,50118,19.81,74082.8,4.79,-26.81,-27.35,0,*74
1498100746.6,50119,19.88,74084.5,4.81,-26.97,-27.51,0,*77
1498100747.85,50120,19.81,74086.8,4.79,-26.87,-27.39,0,*75
1498100749.14,50121,19.88,74088.8,4.79,-26.81,-27.35,0,*7E
1498100750.41,50122,19.81,74078.3,4.79,-27.35,-27.99,0,*75
1498100751.66,50123,19.81,74070.5,4.79,-27.19,-27.71,0,*7C
1498100752.88,50124,19.81,74080.8,4.81,-27.07,-27.83,0,*7E
1498100754.13,50125,19.81,74078.3,4.81,-27.35,-27.99,0,*75
1498100755.36,50126,19.81,74078.0,4.79,-27.51,-28.15,0,*78
1498100756.59,50127,19.81,74076.5,4.79,-27.55,-28.15,0,*7D
1498100757.82,50128,19.81,74076.5,4.79,-27.55,-28.15,0,*72
1498100759.05,50129,19.88,74082.5,4.79,-27.55,-28.15,0,*73
1498100760.28,50130,19.81,74084.3,4.79,-27.51,-28.15,0,*7F
1498100761.54,50131,19.81,74086.0,4.77,-27.45,-28.09,0,*78
1498100762.79,50132,19.88,74086.3,4.77,-27.39,-28.09,0,*70
1498100764.04,50133,19.81,74082.8,4.77,-27.45,-28.09,0,*7A
1498100765.29,50134,19.81,74086.8,4.77,-27.45,-28.09,0,*7D
1498100766.52,50135,19.88,74090.8,4.77,-27.39,-27.93,0,*7B
1498100767.78,50136,19.81,74076.8,4.77,-27.45,-28.05,0,*73
1498100769.02,50137,19.81,74070.8,4.75,-27.35,-27.93,0,*77
1498100770.3,50138,19.81,74068.3,4.75,-27.35,-27.99,0,*72
1498100771.55,50139,19.81,74064.8,4.77,-27.39,-28.05,0,*77
1498100772.81,50140,19.81,74062.8,4.77,-27.61,-28.09,0,*78
1498100774.07,50141,19.88,74066.5,4.77,-27.61,-28.09,0,*79
1498100775.33,50142,19.88,74058.8,4.77,-27.61,-28.25,0,*74
1498100776.56,50143,19.81,74056.3,4.75,-27.77,-28.31,0,*75
1498100777.82,50144,19.81,74068.5,4.75,-27.83,-28.31,0,*79
1498100779.08,50145,19.81,74078.0,4.75,-27.61,-28.15,0,*72
1498100780.37,50146,19.81,74078.8,4.75,-27.61,-28.25,0,*72
1498100781.62,50147,19.81,74080.5,4.75,-27.51,-28.09,0,*7E
1498100782.85,50148,19.81,74080.0,4.75,-27.29,-27.93,0,*72
1498100784.09,50149,19.81,74080.5,4.75,-27.13,-27.83,0,*7B
1498100785.32,50150,19.81,74082.5,4.77,-27.07,-27.61,0,*78
1498100786.56,50151,19.81,74084.0,4.77,-26.97,-27.55,0,*76
1498100787.78,50152,19.81,74078.0,4.75,-27.13,-27.67,0,*7B
1498100789.01,50153,19.81,74074.8,4.75,-27.07,-27.77,0,*7E
1498100790.26,50154,19.81,74078.5,4.75,-27.29,-27.83,0,*7E
1498100791.52,50155,19.81,74072.5,4.75,-27.13,-27.61,0,*7A
1498100792.76,50156,19.81,74078.0,4.75,-27.19,-27.67,0,*75
1498100794.0,50157,19.81,74074.8,4.75,-27.19,-27.77,0,*75
1498100795.23,50158,19.81,74078.3,4.75,-27.13,-27.77,0,*70
1498100796.47,50159,19.81,74082.8,4.75,-27.19,-27.77,0,*7B
1498100797.72,50160,19.81,74086.3,4.75,-27.13,-27.83,0,*70
1498100798.94,50161,19.81,74082.3,4.75,-27.13,-27.67,0,*7B
1498100800.17,50162,19.81,74084.5,4.75,-27.13,-27.67,0,*78
1498100801.38,50163,19.81,74084.3,4.77,-27.07,-27.67,0,*7E
1498100802.63,50164,19.81,74070.8,4.75,-26.97,-27.51,0,*76
1498100803.86,50165,19.81,74068.8,4.75,-27.07,-27.77,0,*7B
1498100805.09,50166,19.81,74074.3,4.77,-27.39,-27.93,0,*7D
1498100806.36,50167,19.81,74080.0,4.75,-27.45,-28.09,0,*79
1498100807.59,50168,19.81,74076.5,4.75,-27.29,-27.93,0,*70
1498100808.84,50169,19.88,74082.5,4.75,-27.35,-27.93,0,*7C
1498100810.07,50170,19.81,74082.8,4.75,-27.29,-27.93,0,*79
1498100811.3,50171,19.81,74084.8,4.73,-27.29,-27.99,0,*74
1498100812.5,50172,19.81,74084.3,4.73,-27.13,-27.67,0,*7F
1498100813.75,50173,19.81,74086.5,4.73,-26.81,-27.19,0,*7D
1498100814.98,50174,19.81,74086.3,4.73,-26.49,-26.93,0,*7D
1498100816.2,50175,19.81,74084.5,4.73,-26.45,-26.93,0,*70
1498100817.42,50176,19.88,74084.3,4.73,-26.61,-26.97,0,*71
1498100818.65,50177,19.88,74090.8,4.77,-26.39,-26.93,0,*7D
1498100819.9,50178,19.81,74086.3,4.77,-26.71,-27.39,0,*7F
1498100821.14,50179,19.81,74080.8,4.77,-26.77,-27.29,0,*79
1498100822.42,50180,19.81,74084.8,4.75,-26.17,-26.77,0,*71
1498100823.67,50181,19.81,74086.8,4.77,-26.29,-26.81,0,*76
1498100824.9,50182,19.81,74084.3,4.77,-26.45,-26.93,0,*7C
1498100826.1,50183,19.81,74084.8,4.77,-26.61,-27.07,0,*77
1498100827.33,50184,19.81,74084.0,4.77,-26.45,-26.93,0,*7A
1498100828.58,50185,19.81,74084.5,4.79,-26.55,-27.07,0,*78
1498100829.83,50186,19.81,74082.8,4.79,-26.39,-26.81,0,*7E
1498100831.06,50187,19.88,74086.0,4.79,-26.39,-26.87,0,*79
1498100832.26,50188,19.88,74086.0,4.81,-26.65,-27.07,0,*71
1498100833.49,50189,19.81,74076.8,4.81,-26.97,-27.51,0,*7E
1498100834.71,50190,19.81,74076.3,4.79,-26.87,-27.51,0,*70
1498100835.94,50191,19.81,74080.3,4.81,-26.87,-27.35,0,*74
1498100837.16,50192,19.81,74086.8,4.81,-26.55,-27.07,0,*79
1498100838.39,50193,19.81,74078.3,4.81,-26.97,-27.51,0,*75
1498100839.62,50194,19.81,74072.5,4.79,-27.03,-27.67,0,*7C
1498100840.89,50195,19.81,74068.8,4.79,-27.19,-27.83,0,*7C
1498100842.13,50196,19.81,74072.5,4.81,-27.23,-27.83,0,*71
1498100843.41,50197,19.81,74074.0,4.79,-27.23,-27.83,0,*77
1498100844.68,50198,19.81,74076.8,4.79,-27.35,-27.99,0,*74
1498100845.96,50199,19.81,74072.0,4.79,-27.39,-28.05,0,*73
1498100847.22,50200,19.81,74074.8,4.79,-27.51,-28.05,0,*7E
1498100848.44,50201,19.81,74074.0,4.77,-27.55,-28.09,0,*79
1498100849.7,50202,19.81,74074.5,4.77,-27.45,-28.09,0,*7B
1498100850.93,50203,19.81,74080.3,4.77,-27.61,-27.93,0,*70
1498100852.16,50204,19.81,74088.8,4.77,-27.45,-27.93,0,*71
1498100853.38,50205,19.81,74090.3,4.77,-27.39,-27.89,0,*70
1498100854.62,50206,19.81,74084.5,4.77,-27.07,-27.61,0,*78
1498100855.84,50207,19.88,74084.0,4.75,-27.13,-27.67,0,*78
1498100857.07,50208,19.81,74080.3,4.75,-27.13,-27.77,0,*76
1498100858.27,50209,19.81,74082.3,4.77,-27.03,-27.55,0,*74
1498100859.52,50210,19.88,74084.0,4.77,-26.93,-27.45,0,*75
1498100860.77,50211,19.81,74082.0,4.75,-26.93,-27.51,0,*73
1498100861.99,50212,19.81,74074.5,4.77,-26.87,-27.39,0,*79
1498100863.27,50213,19.81,74076.0,4.75,-26.81,-27.39,0,*7C
1498100864.5,50214,19.81,74074.0,4.77,-27.03,-27.45,0,*79
1498100865.75,50215,19.81,74078.3,4.77,-26.93,-27.45,0,*70
1498100866.97,50216,19.88,74082.5,4.77,-26.87,-27.39,0,*7D
1498100868.22,50217,19.81,74074.3,4.77,-26.93,-27.39,0,*79
1498100869.43,50218,19.81,74072.0,4.77,-27.03,-27.71,0,*72
1498100870.68,50219,19.81,74070.8,4.77,-26.93,-27.45,0,*7C
1498100871.88,50220,19.81,74074.0,4.77,-27.03,-27.55,0,*7F
1498100873.08,50221,19.81,74070.5,4.77,-27.07,-27.55,0,*7A
1498100874.28,50222,19.81,74072.8,4.77,-27.13,-27.71,0,*7A
1498100875.49,50223,19.81,74072.0,4.77,-27.07,-27.71,0,*7E
1498100876.76,50224,19.81,74074.0,4.75,-27.19,-27.83,0,*79
1498100877.97,50225,19.81,74076.5,4.77,-27.19,-27.77,0,*71
1498100879.22,50226,19.81,74080.0,4.75,-27.35,-27.93,0,*74
1498100880.44,50227,19.81,74074.5,4.77,-27.39,-27.77,0,*71
1498100881.65,50228,19.81,74074.3,4.77,-27.29,-27.77,0,*7F
1498100882.92,50229,19.81,74080.3,4.75,-27.35,-27.99,0,*71
1498100884.18,50230,19.81,74080.8,4.75,-27.29,-27.83,0,*7F
1498100885.4,50231,19.81,74074.3,4.75,-27.13,-27.67,0,*7D
1498100886.66,50232,19.81,74078.5,4.75,-27.07,-27.61,0,*7D
1498100887.94,50233,19.81,74078.8,4.75,-26.81,-27.35,0,*72
1498100889.2,50234,19.81,74076.8,4.75,-26.77,-27.07,0,*7D
1498100890.48,50235,19.81,74076.0,4.75,-26.93,-27.35,0,*77
1498100891.75,50236,19.81,74078.0,4.75,-26.93,-27.45,0,*73
1498100893.01,50237,19.81,74082.0,4.75,-26.45,-26.97,0,*77
1498100894.28,50238,19.81,74082.5,4.75,-26.81,-27.45,0,*7E
1498100895.51,50239,19.81,74080.5,4.77,-26.77,-27.13,0,*77
1498100896.76,50240,19.81,74080.8,4.75,-26.45,-26.81,0,*70
1498100898.02,50241,19.88,74082.8,4.77,-26.29,-26.77,0,*70
1498100899.25,50242,19.81,74078.3,4.77,-26.39,-26.77,0,*72
1498100900.45,50243,19.81,74074.8,4.77,-26.61,-27.07,0,*78
1498100901.67,50244,19.81,74070.5,4.77,-26.71,-27.13,0,*7B
1498100902.9,50245,19.81,74074.8,4.77,-26.77,-27.13,0,*7C